| time (UTC) | temp F | wind direction | speed MPH | gust MPH | rain 1hr in | rain 24hr in | rain mn in | humidity % | barometer mb |
| 20260505195804 | 53 | 307 | 8.0 | 23.0 | 0.00 | 0.00 | 0.00 | 33 | 1009.9 |
| 20260505195257 | 54 | 288 | 8.0 | 21.0 | 0.00 | 0.00 | 0.00 | 33 | 1010.0 |
| 20260505194750 | 55 | 311 | 8.0 | 14.0 | 0.00 | 0.00 | 0.00 | 34 | 1009.9 |
| 20260505194245 | 55 | 306 | 9.0 | 17.0 | 0.00 | 0.00 | 0.00 | 30 | 1010.0 |
| 20260505193738 | 54 | 273 | 9.0 | 17.0 | 0.00 | 0.00 | 0.00 | 32 | 1010.0 |
| 20260505193502 | 56 | 277 | 9.0 | 15.0 | 0.00 | 0.00 | 0.00 | 30 | 1010.0 |
| 20260505192727 | 55 | 291 | 7.0 | 12.0 | 0.00 | 0.00 | 0.00 | 31 | 1010.0 |
| 20260505192221 | 55 | 276 | 7.0 | 15.0 | 0.00 | 0.00 | 0.00 | 32 | 1010.0 |
| 20260505191714 | 56 | 287 | 8.0 | 15.0 | 0.00 | 0.00 | 0.00 | 29 | 1010.3 |
| 20260505191209 | 57 | 278 | 8.0 | 13.0 | 0.00 | 0.00 | 0.00 | 28 | 1010.1 |
| 20260505190923 | 57 | 244 | 8.0 | 17.0 | 0.00 | 0.00 | 0.00 | 32 | 1010.0 |
| 20260505190158 | 56 | 300 | 9.0 | 20.0 | 0.00 | 0.00 | 0.00 | 31 | 1010.0 |
| 20260505185650 | 56 | 316 | 9.0 | 20.0 | 0.00 | 0.00 | 0.00 | 30 | 1010.3 |
| 20260505185632 | 55 | 270 | 9.0 | 18.0 | 0.00 | 0.00 | 0.00 | 31 | 1010.3 |
| 20260505184638 | 55 | 299 | 8.0 | 18.0 | 0.00 | 0.00 | 0.00 | 31 | 1010.1 |
| 20260505184133 | 57 | 303 | 7.0 | 18.0 | 0.00 | 0.00 | 0.00 | 30 | 1009.9 |
| 20260505183626 | 57 | 334 | 9.0 | 18.0 | 0.00 | 0.00 | 0.00 | 30 | 1010.0 |
| 20260505183121 | 57 | 268 | 9.0 | 16.0 | 0.00 | 0.00 | 0.00 | 32 | 1009.8 |
| 20260505182833 | 55 | 329 | 8.0 | 20.0 | 0.00 | 0.00 | 0.00 | 29 | 1009.8 |
| 20260505182325 | 53 | 335 | 6.0 | 20.0 | 0.00 | 0.00 | 0.00 | 33 | 1009.8 |
| 20260505181825 | 53 | 311 | 6.0 | 13.0 | 0.00 | 0.00 | 0.00 | 35 | 1009.9 |
| 20260505181056 | 55 | 292 | 5.0 | 14.0 | 0.00 | 0.00 | 0.00 | 34 | 1009.8 |
| 20260505180551 | 54 | 284 | 5.0 | 14.0 | 0.00 | 0.00 | 0.00 | 32 | 1009.8 |
| 20260505180045 | 54 | 257 | 5.0 | 12.0 | 0.00 | 0.00 | 0.00 | 37 | 1009.8 |
| 20260505175543 | 53 | 319 | 6.0 | 15.0 | 0.00 | 0.00 | 0.00 | 36 | 1009.7 |
| 20260505175043 | 53 | 323 | 7.0 | 15.0 | 0.00 | 0.00 | 0.00 | 32 | 1009.9 |
| 20260505174540 | 55 | 310 | 8.0 | 15.0 | 0.00 | 0.00 | 0.00 | 34 | 1009.6 |
| 20260505174519 | 53 | 274 | 9.0 | 15.0 | 0.00 | 0.00 | 0.00 | 35 | 1009.7 |
| 20260505173758 | 51 | 280 | 7.0 | 14.0 | 0.00 | 0.00 | 0.00 | 33 | 1009.8 |
| 20260505173041 | 53 | 284 | 7.0 | 14.0 | 0.00 | 0.00 | 0.00 | 32 | 1009.7 |
| 20260505172541 | 54 | 290 | 8.0 | 14.0 | 0.00 | 0.00 | 0.00 | 32 | 1009.7 |
| 20260505172041 | 54 | 251 | 6.0 | 12.0 | 0.00 | 0.00 | 0.00 | 35 | 1009.6 |
| 20260505171541 | 54 | 305 | 5.0 | 10.0 | 0.00 | 0.00 | 0.00 | 33 | 1009.7 |
| 20260505171041 | 52 | 316 | 7.0 | 14.0 | 0.00 | 0.00 | 0.00 | 37 | 1009.8 |
| 20260505170801 | 53 | 303 | 8.0 | 15.0 | 0.00 | 0.00 | 0.00 | 32 | 1009.8 |
| 20260505170040 | 55 | 296 | 9.0 | 15.0 | 0.00 | 0.00 | 0.00 | 31 | 1009.8 |
| 20260505165540 | 55 | 237 | 9.0 | 14.0 | 0.00 | 0.00 | 0.00 | 31 | 1009.8 |
| 20260505165040 | 56 | 240 | 9.0 | 14.0 | 0.00 | 0.00 | 0.00 | 33 | 1009.8 |
| 20260505164537 | 54 | 284 | 9.0 | 15.0 | 0.00 | 0.00 | 0.00 | 34 | 1009.8 |
| 20260505164255 | 54 | 313 | 7.0 | 15.0 | 0.00 | 0.00 | 0.00 | 34 | 1009.9 |
| 20260505163536 | 53 | 284 | 7.0 | 15.0 | 0.00 | 0.00 | 0.00 | 33 | 1010.0 |
| 20260505163259 | 53 | 332 | 7.0 | 15.0 | 0.00 | 0.00 | 0.00 | 33 | 1009.9 |
| 20260505162537 | 53 | 280 | 7.0 | 16.0 | 0.00 | 0.00 | 0.00 | 35 | 1009.9 |
| 20260505162037 | 52 | 317 | 7.0 | 16.0 | 0.00 | 0.00 | 0.00 | 33 | 1009.9 |
| 20260505161537 | 52 | 316 | 5.0 | 10.0 | 0.00 | 0.00 | 0.00 | 34 | 1009.9 |
| 20260505161037 | 52 | 331 | 4.0 | 12.0 | 0.00 | 0.00 | 0.00 | 34 | 1009.8 |
| 20260505160537 | 52 | 296 | 5.0 | 12.0 | 0.00 | 0.00 | 0.00 | 36 | 1010.0 |
| 20260505153032 | 51 | 284 | 5.0 | 9.0 | 0.00 | 0.00 | 0.00 | 39 | 1009.8 |
| 20260505152532 | 50 | 286 | 3.0 | 9.0 | 0.00 | 0.00 | 0.00 | 37 | 1009.7 |
| 20260505152033 | 49 | 314 | 3.0 | 10.0 | 0.00 | 0.00 | 0.00 | 36 | 1009.7 |
| 20260505151525 | 49 | 296 | 5.0 | 13.0 | 0.00 | 0.00 | 0.00 | 34 | 1009.7 |
| 20260505151242 | 49 | 320 | 5.0 | 13.0 | 0.00 | 0.00 | 0.00 | 37 | 1009.6 |
| 20260505150513 | 49 | 266 | 5.0 | 9.0 | 0.00 | 0.00 | 0.00 | 35 | 1009.6 |
| 20260505140402 | 46 | 324 | 3.0 | 10.0 | 0.00 | 0.00 | 0.00 | 42 | 1009.9 |
| 20260505130245 | 43 | 298 | 6.0 | 13.0 | 0.00 | 0.00 | 0.00 | 53 | 1009.6 |
| 20260505124727 | 43 | 311 | 5.0 | 11.0 | 0.00 | 0.00 | 0.00 | 57 | 1009.3 |
| 20260505124222 | 42 | 287 | 4.0 | 7.0 | 0.00 | 0.00 | 0.00 | 59 | 1009.2 |
| 20260505123716 | 42 | 301 | 5.0 | 9.0 | 0.00 | 0.00 | 0.00 | 60 | 1009.0 |
| 20260505123210 | 42 | 320 | 5.0 | 9.0 | 0.00 | 0.00 | 0.00 | 60 | 1009.0 |
| 20260505122703 | 42 | 273 | 4.0 | 7.0 | 0.00 | 0.00 | 0.00 | 61 | 1008.9 |
| 20260505122158 | 41 | 281 | 4.0 | 7.0 | 0.00 | 0.00 | 0.00 | 62 | 1008.9 |
| 20260505121651 | 41 | 292 | 4.0 | 8.0 | 0.00 | 0.00 | 0.00 | 63 | 1008.8 |
| 20260505121146 | 40 | 294 | 4.0 | 8.0 | 0.00 | 0.00 | 0.00 | 64 | 1008.8 |
| 20260505120639 | 40 | 288 | 3.0 | 5.0 | 0.00 | 0.00 | 0.00 | 67 | 1008.6 |
| 20260505120135 | 39 | 293 | 3.0 | 5.0 | 0.00 | 0.00 | 0.00 | 67 | 1008.6 |
| 20260505115628 | 39 | 281 | 2.0 | 4.0 | 0.00 | 0.00 | 0.00 | 69 | 1008.4 |
| 20260505115121 | 38 | 273 | 2.0 | 4.0 | 0.00 | 0.00 | 0.00 | 71 | 1008.3 |
| 20260505114616 | 38 | 285 | 2.0 | 4.0 | 0.00 | 0.00 | 0.00 | 70 | 1008.2 |
| 20260505114331 | 38 | 285 | 2.0 | 3.0 | 0.00 | 0.00 | 0.00 | 70 | 1007.9 |
| 20260505113604 | 38 | 285 | 2.0 | 3.0 | 0.00 | 0.00 | 0.00 | 70 | 1008.0 |
| 20260505113057 | 38 | 286 | 1.0 | 3.0 | 0.00 | 0.00 | 0.00 | 69 | 1008.0 |
| 20260505112551 | 38 | 285 | 1.0 | 2.0 | 0.00 | 0.00 | 0.00 | 68 | 1007.9 |
| 20260505112045 | 38 | 285 | 1.0 | 2.0 | 0.00 | 0.00 | 0.00 | 67 | 1007.9 |
| 20260505111539 | 38 | 285 | 1.0 | 2.0 | 0.00 | 0.00 | 0.00 | 67 | 1008.0 |
| 20260505111035 | 38 | 285 | 1.0 | 2.0 | 0.00 | 0.00 | 0.00 | 66 | 1007.8 |
| 20260505110527 | 38 | 285 | 0.0 | 2.0 | 0.00 | 0.00 | 0.00 | 65 | 1007.8 |
| 20260505102200 | 40 | 285 | 1.0 | 2.0 | 0.00 | 0.00 | 0.00 | 61 | 1006.9 |
| 20260505101433 | 41 | 285 | 1.0 | 3.0 | 0.00 | 0.00 | 0.00 | 60 | 1006.9 |
| 20260505100917 | 41 | 285 | 1.0 | 3.0 | 0.00 | 0.00 | 0.00 | 59 | 1006.9 |
| 20260505100633 | 41 | 286 | 2.0 | 3.0 | 0.00 | 0.00 | 0.00 | 59 | 1006.9 |
| 20260505095905 | 41 | 286 | 2.0 | 4.0 | 0.00 | 0.00 | 0.00 | 60 | 1006.9 |
| 20260505095400 | 41 | 286 | 3.0 | 6.0 | 0.00 | 0.00 | 0.00 | 60 | 1006.8 |
| 20260505094900 | 41 | 286 | 3.0 | 6.0 | 0.00 | 0.00 | 0.00 | 59 | 1006.8 |
| 20260505094400 | 41 | 291 | 3.0 | 4.0 | 0.00 | 0.00 | 0.00 | 60 | 1006.8 |
| 20260505094116 | 42 | 292 | 3.0 | 4.0 | 0.00 | 0.00 | 0.00 | 59 | 1006.9 |
| 20260505093358 | 42 | 288 | 3.0 | 6.0 | 0.00 | 0.00 | 0.00 | 58 | 1006.8 |
| 20260505092855 | 42 | 288 | 3.0 | 6.0 | 0.00 | 0.00 | 0.00 | 57 | 1006.9 |
| 20260505092354 | 43 | 292 | 3.0 | 4.0 | 0.00 | 0.00 | 0.00 | 57 | 1006.8 |
| 20260505091852 | 43 | 292 | 4.0 | 6.0 | 0.00 | 0.00 | 0.00 | 56 | 1006.7 |
| 20260505091351 | 43 | 294 | 4.0 | 8.0 | 0.00 | 0.00 | 0.00 | 55 | 1006.7 |
| 20260505090851 | 43 | 296 | 4.0 | 9.0 | 0.00 | 0.00 | 0.00 | 56 | 1006.5 |
| 20260505090351 | 43 | 292 | 4.0 | 9.0 | 0.00 | 0.00 | 0.00 | 55 | 1006.6 |
| 20260505090109 | 43 | 277 | 4.0 | 10.0 | 0.00 | 0.00 | 0.00 | 55 | 1006.5 |
| 20260505085352 | 43 | 290 | 4.0 | 10.0 | 0.00 | 0.00 | 0.00 | 55 | 1006.5 |
| 20260505084852 | 43 | 294 | 3.0 | 7.0 | 0.00 | 0.00 | 0.00 | 55 | 1006.3 |
| 20260505084608 | 44 | 286 | 3.0 | 6.0 | 0.00 | 0.00 | 0.00 | 55 | 1006.3 |
| 20260505083850 | 44 | 284 | 3.0 | 6.0 | 0.00 | 0.00 | 0.00 | 55 | 1006.2 |
| 20260505083349 | 44 | 277 | 4.0 | 9.0 | 0.00 | 0.00 | 0.00 | 54 | 1006.1 |
| 20260505082848 | 44 | 277 | 5.0 | 10.0 | 0.00 | 0.00 | 0.00 | 52 | 1006.0 |
| 20260505082348 | 44 | 297 | 6.0 | 10.0 | 0.00 | 0.00 | 0.00 | 51 | 1006.0 |
| 20260505081843 | 44 | 288 | 5.0 | 10.0 | 0.00 | 0.00 | 0.00 | 52 | 1005.9 |
| 20260505081605 | 44 | 271 | 4.0 | 9.0 | 0.00 | 0.00 | 0.00 | 53 | 1005.9 |
| 20260505080843 | 44 | 307 | 3.0 | 9.0 | 0.00 | 0.00 | 0.00 | 54 | 1005.7 |
| 20260505080343 | 44 | 295 | 3.0 | 5.0 | 0.00 | 0.00 | 0.00 | 54 | 1005.8 |
| 20260505075843 | 45 | 282 | 3.0 | 6.0 | 0.00 | 0.00 | 0.00 | 53 | 1005.7 |
| 20260505075343 | 45 | 285 | 4.0 | 10.0 | 0.00 | 0.00 | 0.00 | 53 | 1005.8 |
| 20260505075327 | 45 | 298 | 4.0 | 10.0 | 0.00 | 0.00 | 0.00 | 52 | 1005.7 |
| 20260505074344 | 45 | 296 | 4.0 | 8.0 | 0.00 | 0.00 | 0.00 | 52 | 1005.7 |
| 20260505074103 | 45 | 300 | 4.0 | 9.0 | 0.00 | 0.00 | 0.00 | 52 | 1005.8 |
| 20260505073829 | 45 | 281 | 4.0 | 9.0 | 0.00 | 0.00 | 0.00 | 51 | 1005.6 |
| 20260505072845 | 45 | 294 | 5.0 | 9.0 | 0.00 | 0.00 | 0.00 | 51 | 1005.6 |
| 20260505072343 | 45 | 292 | 4.0 | 9.0 | 0.00 | 0.00 | 0.00 | 52 | 1005.4 |
| 20260505071843 | 45 | 292 | 3.0 | 7.0 | 0.00 | 0.00 | 0.00 | 52 | 1005.6 |
| 20260505071343 | 45 | 306 | 3.0 | 7.0 | 0.00 | 0.00 | 0.00 | 53 | 1005.6 |
| 20260505070843 | 45 | 290 | 3.0 | 7.0 | 0.00 | 0.00 | 0.00 | 53 | 1005.7 |
| 20260505070603 | 45 | 297 | 3.0 | 7.0 | 0.00 | 0.00 | 0.00 | 53 | 1005.7 |
| 20260505065844 | 45 | 293 | 2.0 | 4.0 | 0.00 | 0.00 | 0.00 | 54 | 1005.7 |
| 20260505065607 | 45 | 284 | 2.0 | 4.0 | 0.00 | 0.00 | 0.00 | 53 | 1005.7 |
| 20260505064844 | 45 | 277 | 2.0 | 3.0 | 0.00 | 0.00 | 0.00 | 53 | 1005.9 |
| 20260505064603 | 45 | 276 | 2.0 | 3.0 | 0.00 | 0.00 | 0.00 | 52 | 1005.9 |
| 20260505063844 | 45 | 270 | 2.0 | 3.0 | 0.00 | 0.00 | 0.00 | 52 | 1005.9 |
| 20260505063344 | 45 | 269 | 1.0 | 3.0 | 0.00 | 0.00 | 0.00 | 51 | 1005.9 |
| 20260505062841 | 46 | 282 | 1.0 | 3.0 | 0.00 | 0.00 | 0.00 | 51 | 1005.8 |
| 20260505062342 | 46 | 283 | 2.0 | 4.0 | 0.00 | 0.00 | 0.00 | 51 | 1005.7 |
| 20260505061842 | 46 | 283 | 3.0 | 11.0 | 0.00 | 0.00 | 0.00 | 51 | 1005.8 |
| 20260505061339 | 46 | 281 | 3.0 | 11.0 | 0.00 | 0.00 | 0.00 | 49 | 1005.7 |
| 20260505060837 | 46 | 290 | 2.0 | 4.0 | 0.00 | 0.00 | 0.00 | 50 | 1005.8 |
| 20260505060335 | 46 | 291 | 2.0 | 3.0 | 0.00 | 0.00 | 0.00 | 50 | 1005.8 |
| 20260505055833 | 46 | 291 | 2.0 | 3.0 | 0.00 | 0.00 | 0.00 | 48 | 1005.9 |
| 20260505055554 | 47 | 291 | 2.0 | 3.0 | 0.00 | 0.00 | 0.00 | 47 | 1005.8 |
| 20260505054830 | 47 | 291 | 2.0 | 3.0 | 0.00 | 0.00 | 0.00 | 45 | 1005.8 |
| 20260505054327 | 47 | 291 | 2.0 | 4.0 | 0.00 | 0.00 | 0.00 | 45 | 1005.8 |
| 20260505053825 | 47 | 293 | 3.0 | 5.0 | 0.00 | 0.00 | 0.00 | 45 | 1005.9 |
| 20260505053325 | 48 | 286 | 4.0 | 8.0 | 0.00 | 0.00 | 0.00 | 44 | 1005.7 |
| 20260505052819 | 48 | 298 | 5.0 | 9.0 | 0.00 | 0.00 | 0.00 | 43 | 1005.7 |
| 20260505052312 | 48 | 300 | 5.0 | 12.0 | 0.00 | 0.00 | 0.00 | 43 | 1005.7 |
| 20260505051807 | 48 | 276 | 5.0 | 12.0 | 0.00 | 0.00 | 0.00 | 43 | 1005.8 |
| 20260505051529 | 48 | 306 | 5.0 | 11.0 | 0.00 | 0.00 | 0.00 | 43 | 1005.7 |
| 20260505050754 | 48 | 295 | 6.0 | 13.0 | 0.00 | 0.00 | 0.00 | 43 | 1005.7 |
| 20260505050249 | 48 | 295 | 6.0 | 13.0 | 0.00 | 0.00 | 0.00 | 43 | 1005.7 |
| 20260505041738 | 50 | 9 | 4.0 | 10.0 | 0.00 | 0.00 | 0.00 | 45 | 1005.4 |
| 20260505041237 | 50 | 288 | 4.0 | 14.0 | 0.00 | 0.00 | 0.00 | 44 | 1005.3 |
| 20260505040738 | 50 | 313 | 6.0 | 14.0 | 0.00 | 0.00 | 0.00 | 44 | 1005.2 |
| 20260505040456 | 50 | 321 | 6.0 | 14.0 | 0.00 | 0.00 | 0.00 | 43 | 1005.2 |
| 20260505035737 | 51 | 333 | 7.0 | 17.0 | 0.00 | 0.00 | 0.00 | 43 | 1004.9 |
| 20260505035238 | 51 | 306 | 9.0 | 17.0 | 0.00 | 0.00 | 0.00 | 42 | 1005.1 |
| 20260505034957 | 51 | 294 | 10.0 | 17.0 | 0.00 | 0.00 | 0.00 | 42 | 1004.9 |
| 20260505034234 | 51 | 307 | 10.0 | 20.0 | 0.00 | 0.00 | 0.00 | 41 | 1005.0 |
| 20260505033734 | 51 | 317 | 9.0 | 20.0 | 0.00 | 0.00 | 0.00 | 42 | 1004.8 |
| 20260505033234 | 52 | 294 | 8.0 | 17.0 | 0.00 | 0.00 | 0.00 | 43 | 1004.7 |
| 20260505032733 | 52 | 301 | 8.0 | 17.0 | 0.00 | 0.00 | 0.00 | 43 | 1004.6 |
| 20260505032233 | 52 | 296 | 7.0 | 12.0 | 0.00 | 0.00 | 0.00 | 43 | 1004.4 |
| 20260505031733 | 52 | 306 | 8.0 | 14.0 | 0.00 | 0.00 | 0.00 | 43 | 1004.3 |
| 20260505031233 | 52 | 312 | 8.0 | 14.0 | 0.00 | 0.00 | 0.00 | 43 | 1004.2 |
| 20260505030733 | 52 | 300 | 8.0 | 14.0 | 0.00 | 0.00 | 0.00 | 43 | 1004.2 |
| 20260505030501 | 52 | 282 | 9.0 | 15.0 | 0.00 | 0.00 | 0.00 | 43 | 1004.2 |
| 20260505025913 | 53 | 298 | 8.0 | 14.0 | 0.00 | 0.00 | 0.00 | 43 | 1003.9 |
| 20260505025907 | 53 | 294 | 8.0 | 15.0 | 0.00 | 0.00 | 0.00 | 42 | 1004.0 |
| 20260505025637 | 53 | 315 | 7.0 | 14.0 | 0.00 | 0.00 | 0.00 | 44 | 1003.9 |
| 20260505024229 | 53 | 327 | 7.0 | 12.0 | 0.00 | 0.00 | 0.00 | 44 | 1003.8 |
| 20260505023953 | 53 | 306 | 7.0 | 12.0 | 0.00 | 0.00 | 0.00 | 43 | 1003.7 |
| 20260505023229 | 54 | 303 | 6.0 | 11.0 | 0.00 | 0.00 | 0.00 | 43 | 1003.5 |
| 20260505022729 | 54 | 300 | 7.0 | 15.0 | 0.00 | 0.00 | 0.00 | 43 | 1003.4 |
| 20260505022229 | 54 | 9 | 8.0 | 15.0 | 0.00 | 0.00 | 0.00 | 42 | 1003.3 |
| 20260505021729 | 54 | 340 | 8.0 | 15.0 | 0.00 | 0.00 | 0.00 | 42 | 1003.1 |
| 20260505021222 | 55 | 313 | 9.0 | 20.0 | 0.00 | 0.00 | 0.00 | 42 | 1003.0 |
| 20260505020716 | 55 | 319 | 11.0 | 20.0 | 0.00 | 0.00 | 0.00 | 41 | 1002.8 |
| 20260505020210 | 55 | 309 | 11.0 | 19.0 | 0.00 | 0.00 | 0.00 | 41 | 1002.9 |
| 20260505015704 | 55 | 317 | 11.0 | 19.0 | 0.00 | 0.00 | 0.00 | 41 | 1002.7 |
| 20260505015159 | 56 | 309 | 11.0 | 19.0 | 0.00 | 0.00 | 0.00 | 41 | 1002.4 |
| 20260505014652 | 56 | 315 | 9.0 | 18.0 | 0.00 | 0.00 | 0.00 | 41 | 1002.4 |
| 20260505014148 | 56 | 306 | 8.0 | 18.0 | 0.00 | 0.00 | 0.00 | 41 | 1002.0 |
| 20260505013641 | 56 | 296 | 9.0 | 18.0 | 0.00 | 0.00 | 0.00 | 42 | 1002.1 |
| 20260505013134 | 56 | 309 | 8.0 | 15.0 | 0.00 | 0.00 | 0.00 | 42 | 1001.9 |
| 20260505012629 | 56 | 315 | 9.0 | 14.0 | 0.00 | 0.00 | 0.00 | 40 | 1001.8 |
| 20260505012122 | 57 | 284 | 9.0 | 18.0 | 0.00 | 0.00 | 0.00 | 40 | 1001.7 |
| 20260505011617 | 57 | 283 | 10.0 | 18.0 | 0.00 | 0.00 | 0.00 | 40 | 1001.7 |
| 20260505011331 | 57 | 292 | 8.0 | 15.0 | 0.00 | 0.00 | 0.00 | 39 | 1001.6 |
| 20260505010605 | 57 | 294 | 9.0 | 17.0 | 0.00 | 0.00 | 0.00 | 40 | 1001.6 |
| 20260505010058 | 58 | 0 | 10.0 | 17.0 | 0.00 | 0.00 | 0.00 | 39 | 1001.4 |
| 20260505005553 | 58 | 302 | 10.0 | 17.0 | 0.00 | 0.00 | 0.00 | 39 | 1001.3 |
| 20260505005046 | 58 | 305 | 9.0 | 18.0 | 0.00 | 0.00 | 0.00 | 39 | 1001.2 |
| 20260505004541 | 58 | 305 | 10.0 | 17.0 | 0.00 | 0.00 | 0.00 | 39 | 1001.1 |
| 20260505004034 | 58 | 332 | 9.0 | 17.0 | 0.00 | 0.00 | 0.00 | 39 | 1001.1 |
| 20260505003529 | 58 | 297 | 8.0 | 15.0 | 0.00 | 0.00 | 0.00 | 38 | 1001.2 |
| 20260505003022 | 59 | 300 | 10.0 | 16.0 | 0.00 | 0.00 | 0.00 | 38 | 1001.1 |
| 20260505002516 | 59 | 288 | 10.0 | 16.0 | 0.00 | 0.00 | 0.00 | 37 | 1001.0 |
| 20260505002010 | 59 | 275 | 11.0 | 17.0 | 0.00 | 0.00 | 0.00 | 36 | 1000.7 |
| 20260505001504 | 60 | 299 | 11.0 | 17.0 | 0.00 | 0.00 | 0.00 | 36 | 1000.7 |
| 20260505000959 | 60 | 302 | 11.0 | 16.0 | 0.00 | 0.00 | 0.00 | 36 | 1000.6 |
| 20260505000713 | 60 | 284 | 10.0 | 20.0 | 0.00 | 0.00 | 0.00 | 35 | 1000.5 |
| 20260504235946 | 60 | 304 | 12.0 | 20.0 | 0.00 | 0.00 | 0.00 | 36 | 1000.4 |
| 20260504235441 | 61 | 298 | 13.0 | 25.0 | 0.00 | 0.00 | 0.00 | 35 | 1000.4 |
| 20260504234934 | 61 | 306 | 11.0 | 25.0 | 0.00 | 0.00 | 0.00 | 35 | 1000.3 |
| 20260504234428 | 61 | 290 | 10.0 | 18.0 | 0.00 | 0.00 | 0.00 | 36 | 1000.3 |
| 20260504234143 | 61 | 311 | 10.0 | 18.0 | 0.00 | 0.00 | 0.00 | 35 | 1000.2 |
| 20260504233636 | 62 | 321 | 11.0 | 21.0 | 0.00 | 0.00 | 0.00 | 35 | 1000.3 |
| 20260504232911 | 62 | 286 | 12.0 | 21.0 | 0.00 | 0.00 | 0.00 | 34 | 1000.2 |
| 20260504232405 | 62 | 266 | 11.0 | 20.0 | 0.00 | 0.00 | 0.00 | 34 | 1000.0 |
| 20260504231859 | 62 | 275 | 10.0 | 18.0 | 0.00 | 0.00 | 0.00 | 34 | 999.9 |
| 20260504231353 | 62 | 298 | 9.0 | 16.0 | 0.00 | 0.00 | 0.00 | 36 | 999.9 |
| 20260504231107 | 62 | 292 | 8.0 | 14.0 | 0.00 | 0.00 | 0.00 | 36 | 999.8 |
| 20260504230340 | 62 | 279 | 7.0 | 12.0 | 0.00 | 0.00 | 0.00 | 35 | 999.8 |
| 20260504225834 | 62 | 271 | 8.0 | 16.0 | 0.00 | 0.00 | 0.00 | 35 | 999.8 |
| 20260504225329 | 62 | 291 | 9.0 | 16.0 | 0.00 | 0.00 | 0.00 | 35 | 999.9 |
| 20260504224823 | 63 | 288 | 10.0 | 20.0 | 0.00 | 0.00 | 0.00 | 35 | 999.8 |
| 20260504224317 | 63 | 306 | 12.0 | 20.0 | 0.00 | 0.00 | 0.00 | 33 | 999.7 |
| 20260504223810 | 64 | 298 | 11.0 | 18.0 | 0.00 | 0.00 | 0.00 | 32 | 999.7 |
| 20260504223304 | 64 | 304 | 11.0 | 17.0 | 0.00 | 0.00 | 0.00 | 32 | 999.6 |
| 20260504223244 | 64 | 269 | 13.0 | 24.0 | 0.00 | 0.00 | 0.00 | 29 | 999.4 |
| 20260504222252 | 64 | 280 | 14.0 | 24.0 | 0.00 | 0.00 | 0.00 | 28 | 999.4 |
| 20260504221747 | 65 | 282 | 13.0 | 21.0 | 0.00 | 0.00 | 0.00 | 26 | 999.3 |
| 20260504221502 | 65 | 279 | 13.0 | 21.0 | 0.00 | 0.00 | 0.00 | 27 | 999.1 |
| 20260504220734 | 65 | 300 | 13.0 | 21.0 | 0.00 | 0.00 | 0.00 | 27 | 999.1 |
| 20260504220229 | 65 | 315 | 10.0 | 21.0 | 0.00 | 0.00 | 0.00 | 28 | 998.9 |
| 20260504215722 | 65 | 307 | 10.0 | 19.0 | 0.00 | 0.00 | 0.00 | 28 | 998.9 |
| 20260504215218 | 66 | 282 | 9.0 | 15.0 | 0.00 | 0.00 | 0.00 | 27 | 998.9 |
| 20260504214711 | 65 | 269 | 10.0 | 15.0 | 0.00 | 0.00 | 0.00 | 27 | 998.8 |
| 20260504214204 | 65 | 283 | 11.0 | 20.0 | 0.00 | 0.00 | 0.00 | 29 | 998.8 |
| 20260504213658 | 65 | 313 | 12.0 | 21.0 | 0.00 | 0.00 | 0.00 | 28 | 998.7 |
| 20260504213153 | 65 | 293 | 13.0 | 21.0 | 0.00 | 0.00 | 0.00 | 27 | 998.7 |
| 20260504212646 | 66 | 286 | 12.0 | 21.0 | 0.00 | 0.00 | 0.00 | 27 | 998.6 |
| 20260504212401 | 67 | 313 | 12.0 | 21.0 | 0.00 | 0.00 | 0.00 | 27 | 998.6 |
| 20260504211634 | 67 | 287 | 12.0 | 21.0 | 0.00 | 0.00 | 0.00 | 26 | 998.5 |
| 20260504211129 | 67 | 304 | 12.0 | 19.0 | 0.00 | 0.00 | 0.00 | 27 | 998.4 |
| 20260504210622 | 67 | 277 | 12.0 | 19.0 | 0.00 | 0.00 | 0.00 | 27 | 998.5 |
| 20260504210117 | 67 | 306 | 11.0 | 19.0 | 0.00 | 0.00 | 0.00 | 27 | 998.5 |
| 20260504205610 | 67 | 277 | 10.0 | 19.0 | 0.00 | 0.00 | 0.00 | 28 | 998.4 |
| 20260504205105 | 67 | 300 | 8.0 | 14.0 | 0.00 | 0.00 | 0.00 | 30 | 998.4 |
| 20260504204558 | 67 | 279 | 9.0 | 17.0 | 0.00 | 0.00 | 0.00 | 32 | 998.4 |
| 20260504204053 | 67 | 263 | 11.0 | 17.0 | 0.00 | 0.00 | 0.00 | 32 | 998.5 |
| 20260504203547 | 67 | 269 | 11.0 | 17.0 | 0.00 | 0.00 | 0.00 | 31 | 998.4 |
| 20260504203303 | 67 | 302 | 12.0 | 20.0 | 0.00 | 0.00 | 0.00 | 32 | 998.3 |
| 20260504202757 | 67 | 288 | 10.0 | 20.0 | 0.00 | 0.00 | 0.00 | 29 | 998.3 |
| 20260504202029 | 68 | 317 | 7.0 | 15.0 | 0.00 | 0.00 | 0.00 | 34 | 998.4 |
| 20260504201524 | 67 | 288 | 9.0 | 16.0 | 0.00 | 0.00 | 0.00 | 34 | 998.5 |
| 20260504201016 | 67 | 306 | 9.0 | 16.0 | 0.00 | 0.00 | 0.00 | 31 | 998.4 |
| 20260504200511 | 67 | 269 | 10.0 | 15.0 | 0.00 | 0.00 | 0.00 | 31 | 998.5 |
| 20260504200010 | 67 | 303 | 11.0 | 17.0 | 0.00 | 0.00 | 0.00 | 30 | 998.4 |